Flag for India Weather past 2 weeks in Tiruchirappalli, Tamil Nadu, India

Now
86 °F

Scattered clouds.


Feels Like: 97 °F
Forecast: 74 / 93 °F
Wind: 2 mph from North

Location: Tiruchchirapalli

Current Time: Oct 2, 2014 at 10:10:47 AM

Latest Report: Oct 2, 2014 at 9:10 AM


Visibility: 2 mi

Pressure: 29.92 "Hg

Humidity: 75%

Dew point: 77 °F

Location of TiruchirappalliLocation

Historic Weather in Tiruchirappalli — Graph

°F

Tiruchirappalli temperature yesterday

Maximum temperature yesterday: 97 °F (at 1:40 PM)
Minimum temperature yesterday: 79 °F (at 12:10 AM)
Average temperature yesterday: 86 °F

Past Weeks' High & Low Weather Summary

 TemperatureHumidityPressure
High100 °F (Sep 17, 3:40 PM)94% (Sep 22, 5:10 AM)29.92 "Hg (Sep 22, 5:10 AM)
Low77 °F (Sep 24, 4:40 AM)35% (Sep 17, 3:40 PM)29.59 "Hg (Sep 17, 3:10 PM)
Average87 °F63%29.78 "Hg
* Reported Sep 17 9:40 AM — Oct 2 8:40 AM, Tiruchirappalli, Weather by CustomWeather, © 2014

Note: Actual official high and low records may vary slightly from our data, if they occured in-between our weather recording intervals... More about our weather records

Advertising

Tiruchirappalli weather history for previous 24 hours

 ConditionsComfort  
Time TempWeatherWind HumidityBarometerVisibility
8:40 AM
Oct 2
84 °FScattered clouds.2 mph79%29.92 "Hg2 mi
8:10 AM82 °FScattered clouds.2 mph79%29.89 "Hg2 mi
7:40 AM81 °FHaze.2 mph84%29.89 "Hg2 mi
7:10 AM79 °FHaze.2 mph89%29.89 "Hg2 mi
6:40 AM79 °FHaze.2 mph89%29.86 "Hg2 mi
6:10 AM79 °FHaze.3 mph84%29.86 "Hg2 mi
5:40 AM79 °FHaze.3 mph84%29.83 "Hg3 mi
5:10 AM79 °FHaze.3 mph84%29.86 "Hg3 mi
4:40 AM79 °FHaze.No wind89%29.83 "Hg3 mi
3:40 AM81 °FHaze.No wind84%29.83 "Hg3 mi
3:10 AM81 °FHaze.No wind84%29.83 "Hg3 mi
2:40 AM81 °FHaze.No wind84%29.83 "Hg3 mi
1:40 AM82 °FPassing clouds.No wind79%29.83 "Hg4 mi
1:10 AM82 °FPassing clouds.2 mph79%29.86 "Hg4 mi
12:40 AM82 °FPassing clouds.2 mph79%29.86 "Hg4 mi
12:10 AM82 °FPassing clouds.2 mph79%29.89 "Hg4 mi
11:40 PM
Oct 1
82 °FPassing clouds.2 mph79%29.89 "Hg4 mi
11:10 PM82 °FPassing clouds.2 mph79%29.89 "Hg4 mi
10:40 PM82 °FPassing clouds.2 mph79%29.89 "Hg4 mi
10:10 PM82 °FPassing clouds.2 mph79%29.89 "Hg4 mi
9:40 PM82 °FPassing clouds.3 mph79%29.89 "Hg4 mi
9:10 PM84 °FPassing clouds.3 mph79%29.89 "Hg4 mi
8:40 PM84 °FPassing clouds.5 mph74%29.86 "Hg4 mi
8:10 PM84 °FPassing clouds.6 mph79%29.86 "Hg4 mi
7:40 PM84 °FPartly cloudy.6 mph79%29.83 "Hg4 mi
7:10 PM86 °FPartly cloudy.6 mph70%29.83 "Hg4 mi
6:40 PM88 °FPartly cloudy.6 mph66%29.83 "Hg4 mi
6:10 PM88 °FBroken clouds.14 mph66%29.80 "Hg4 mi
5:40 PM90 °FThunderstorms. Broken clouds.10 mph55%29.77 "Hg4 mi
5:10 PM91 °FThunderstorms. Broken clouds.3 mph52%29.77 "Hg5 mi
4:40 PM93 °FThunderstorms. Broken clouds.14 mph53%29.74 "Hg5 mi
4:10 PM95 °FScattered clouds.15 mph47%29.74 "HgN/A
3:40 PM95 °FScattered clouds.7 mph47%29.74 "HgN/A
3:10 PM97 °FScattered clouds.8 mph44%29.77 "HgN/A
2:40 PM97 °FScattered clouds.5 mph44%29.77 "HgN/A
2:10 PM97 °FScattered clouds.6 mph44%29.77 "HgN/A
1:40 PM97 °FScattered clouds.7 mph44%29.80 "HgN/A
1:10 PM95 °FScattered clouds.6 mph47%29.80 "HgN/A
12:40 PM93 °FScattered clouds.5 mph49%29.83 "HgN/A
12:10 PM93 °FScattered clouds.6 mph49%29.83 "HgN/A
11:40 AM91 °FScattered clouds.5 mph52%29.86 "HgN/A
11:10 AM91 °FScattered clouds.6 mph56%29.86 "HgN/A
10:40 AM91 °FScattered clouds.7 mph56%29.89 "Hg5 mi
10:10 AM90 °FScattered clouds.6 mph59%29.89 "Hg4 mi
Weather by CustomWeather, © 2014

See weather overviewHow to use our weather pages